Wind_Speed
21 21 22 23 23 24 24 24 24 24 24 24 24 24 23 23 22 21 21 21 21 21 21 21 22 22 22 22 23 24 25 26 26 27 28 29 29 28 30 30 30 30 30
21 22 23 24 23 23 24 24 24 24 23 23 23 23 23 23 22 22 21 21 21 21 21 21 21 22 22 21 21 22 24 24 25 26 27 27 27 27 27 28 28 30 31
21 22 22 23 22 22 23 23 23 22 21 21 22 22 22 22 22 22 20 20 20 20 20 20 20 20 20 20 21 21 22 23 24 24 24 25 25 25 25 26 27 28 29
21 21 21 21 21 21 21 21 21 20 20 20 20 20 20 20 20 20 20 19 19 18 18 18 19 18 19 20 20 20 21 22 22 22 22 22 22 23 24 25 25 25 26
19 19 20 20 20 20 20 20 20 19 19 18 18 18 19 19 19 19 19 19 19 18 18 18 18 18 18 19 19 20 20 21 20 20 21 21 21 22 22 23 24 24 25
18 18 18 19 19 18 18 18 18 17 17 17 17 18 18 19 19 19 19 19 18 18 18 18 18 18 18 19 19 19 19 18 18 18 18 19 19 20 20 22 22 23 23
18 17 17 18 17 17 18 17 16 16 17 17 17 18 18 19 19 19 19 19 19 18 18 17 17 17 17 17 17 16 16 16 16 16 17 18 18 19 19 20 21 22 22
17 17 17 17 16 16 16 16 15 16 16 16 17 18 18 18 19 19 19 19 19 18 18 17 17 17 16 16 16 16 16 16 17 17 17 18 18 19 19 19 20 20 21
16 15 15 15 15 14 15 15 15 16 16 16 17 17 18 19 19 19 19 19 19 19 18 17 17 17 17 16 17 16 16 17 17 17 17 17 18 19 20 21 20 20 20
15 14 14 14 14 14 14 14 15 16 16 16 16 17 18 19 19 19 20 20 20 19 18 18 18 18 18 17 17 17 17 17 17 18 18 18 18 18 18 19 20 20 20
13 13 13 13 13 14 13 14 15 15 16 16 17 18 18 19 19 19 20 20 20 19 18 18 19 19 19 19 18 18 18 18 18 18 18 18 18 18 18 19 20 20 21
12 12 12 13 13 13 13 13 14 15 16 16 18 18 19 19 18 19 20 20 20 19 18 18 19 19 19 19 18 18 17 17 17 17 17 17 17 18 19 20 20 21 21
11 11 12 12 12 12 12 13 14 16 16 17 18 18 18 18 19 19 21 21 21 20 19 19 19 19 19 19 19 18 17 16 16 16 16 17 18 18 19 19 20 22 23
10 11 11 11 11 12 13 14 14 15 17 18 18 18 18 19 20 21 21 21 21 20 20 20 20 20 20 19 19 19 18 17 17 17 18 18 18 18 19 20 21 21 22
9 10 10 10 11 12 13 13 14 16 18 18 18 19 20 20 21 21 21 21 22 21 22 22 21 21 21 20 20 20 20 20 20 20 20 19 19 20 20 20 21 21 21
9 9 9 10 11 12 13 14 15 16 18 19 20 20 21 21 21 21 22 23 23 24 23 23 23 23 22 21 21 21 21 21 21 21 21 22 21 21 21 21 22 22 23
8 9 9 10 11 12 14 15 16 17 19 20 21 21 21 22 22 22 23 24 25 25 25 25 24 23 23 22 22 22 22 22 22 22 22 22 22 22 22 22 22 23 23
8 9 9 10 11 13 14 16 16 17 19 20 21 22 23 23 23 24 24 25 26 26 26 26 26 25 24 24 23 23 24 24 24 24 23 23 24 24 24 24 24 24 24
8 8 9 10 12 14 15 16 17 18 19 20 22 23 24 24 25 25 26 26 26 27 27 27 27 27 25 25 25 25 25 25 24 24 24 24 24 24 24 25 25 25 25
7 9 10 11 12 14 16 16 18 19 20 21 22 23 25 26 26 27 27 27 27 28 28 28 28 28 27 26 25 25 26 25 25 25 25 25 24 25 25 26 27 28 28
8 9 10 11 13 14 16 17 18 20 21 22 23 24 26 27 27 28 28 28 29 29 29 29 29 29 28 27 27 26 26 26 26 26 25 25 26 26 26 27 28 29 29
8 9 11 13 14 15 16 18 19 21 22 24 24 26 27 28 28 29 29 30 30 31 30 30 30 29 29 29 29 28 28 27 27 27 27 27 27 27 28 28 28 29 29
8 10 12 13 14 16 17 19 20 21 23 24 26 27 28 28 29 30 31 31 32 32 32 32 32 31 31 30 30 30 29 28 28 27 27 27 27 27 27 27 27 27 27
9 11 12 14 15 16 18 19 21 23 24 26 27 28 29 30 30 31 32 32 32 33 33 33 33 33 32 32 31 31 30 29 28 28 28 27 27 26 26 27 27 27 27
9 11 12 14 16 17 19 20 22 24 25 27 28 30 30 31 32 33 33 33 34 34 34 34 34 34 34 33 32 32 32 31 30 29 28 27 27 26 26 26 26 27 27
10 11 13 15 16 18 20 21 23 24 26 28 30 31 32 32 33 34 34 35 36 36 35 35 35 35 35 34 34 33 32 31 30 29 28 27 27 26 26 26 26 26 27
Wind_Direction
303 305 304 304 306 308 310 312 312 313 312 312 312 313 312 312 311 309 307 306 304 301 297 292 288 287 283 279 276 274 272 270 268 264 263 262 262 262 261 259 259 258 256
306 306 306 304 304 307 310 311 311 312 312 312 313 313 312 312 312 311 308 307 306 305 302 297 292 287 283 281 280 277 276 274 272 269 266 263 263 263 261 258 257 257 257
306 307 308 306 306 309 311 311 311 312 314 316 317 317 316 315 316 315 314 312 311 308 305 302 298 292 286 285 283 280 280 278 275 273 270 265 263 261 261 258 256 256 256
309 310 312 311 311 310 311 312 312 314 316 317 319 322 323 322 321 320 319 318 317 314 310 308 305 298 291 289 287 284 283 282 279 274 271 268 265 263 261 259 257 257 257
313 313 314 314 314 313 314 314 315 316 318 319 321 324 326 326 325 324 322 321 318 317 316 314 310 304 300 296 291 287 285 283 280 277 273 270 265 263 261 261 258 257 258
313 314 315 317 317 318 320 321 320 320 321 322 324 325 325 327 328 326 322 321 319 318 317 317 316 312 305 300 296 291 288 286 282 281 277 273 268 265 263 262 259 257 256
316 316 318 320 321 321 322 323 323 324 324 325 326 328 328 327 327 327 326 326 326 324 322 321 320 318 314 311 306 302 298 293 287 283 279 277 272 267 265 263 262 262 258
316 317 319 320 322 323 325 327 327 326 325 324 325 326 328 328 327 328 330 332 331 329 325 322 320 318 318 314 310 306 302 296 290 284 281 279 274 269 266 264 264 263 259
318 319 321 323 324 326 327 329 330 329 326 323 324 326 328 330 330 332 333 332 331 330 327 324 321 317 315 311 308 304 301 298 293 288 285 282 279 273 268 265 264 262 259
319 321 325 326 327 327 328 328 330 330 328 328 329 331 331 331 329 330 333 333 332 330 327 326 324 319 316 313 310 306 302 299 294 291 287 285 281 277 273 269 264 262 260
323 324 326 328 330 331 330 331 332 334 335 336 335 335 335 333 333 332 334 334 332 330 328 326 325 323 321 317 312 307 303 300 297 294 290 287 282 279 276 273 268 265 263
327 328 330 331 331 333 334 337 340 340 340 339 338 336 336 337 338 338 336 336 337 335 331 329 328 326 324 322 317 311 305 301 298 295 292 288 286 282 278 274 269 265 264
330 331 335 338 337 338 339 342 343 342 341 339 338 338 339 340 339 338 337 337 336 335 333 331 330 329 327 324 320 316 311 303 299 296 293 290 289 285 280 276 272 268 265
336 337 341 344 345 343 342 342 344 345 345 345 345 344 344 343 342 342 341 340 338 335 333 331 329 328 327 323 321 319 316 308 302 297 293 289 287 284 279 277 274 272 270
341 345 346 346 347 347 347 345 344 344 346 348 348 348 347 346 345 344 343 342 341 339 335 332 328 325 324 322 319 316 315 312 307 300 294 288 286 284 282 279 277 275 273
345 348 347 348 349 350 351 351 350 349 350 349 347 347 346 345 345 344 343 341 340 339 336 333 328 325 322 320 318 315 313 311 309 305 299 293 289 285 283 281 279 278 275
344 347 349 351 352 352 352 351 349 348 347 347 347 346 345 344 344 343 342 340 339 337 335 333 330 327 322 318 315 313 311 309 307 305 302 297 292 289 286 285 282 280 278
346 349 352 353 352 352 351 350 348 347 347 346 346 345 344 343 343 341 341 340 338 336 335 334 332 328 324 321 317 314 313 311 309 306 303 299 295 292 288 286 283 281 279
348 349 352 353 352 351 350 350 349 348 347 346 346 345 344 344 344 343 341 340 338 337 336 335 334 332 328 324 320 317 315 312 310 307 304 302 300 296 292 290 286 284 282
348 348 349 351 351 351 351 350 350 349 348 347 346 346 346 346 345 344 343 341 340 339 338 336 335 334 332 327 323 320 317 314 311 308 305 302 300 298 294 291 288 286 284
353 353 353 352 352 351 351 351 350 349 347 346 345 345 345 345 344 344 342 341 340 340 339 337 335 333 332 331 328 324 320 316 313 311 307 303 301 298 296 293 291 289 287
358 357 356 355 353 351 350 349 348 348 346 346 346 346 344 344 343 343 342 340 340 339 338 337 335 334 332 331 329 327 322 318 316 313 310 306 303 300 297 295 292 291 289
1 357 355 354 353 351 349 350 350 349 348 348 347 346 345 344 343 342 341 340 340 339 338 337 336 335 332 330 328 326 323 321 319 317 314 312 308 305 302 299 297 295 292
0 358 357 355 354 352 350 350 350 350 350 349 349 348 347 346 345 344 343 342 341 340 339 339 339 338 336 333 331 328 327 324 321 320 318 316 314 310 307 304 301 299 298
0 359 358 356 354 352 351 351 351 350 349 349 349 348 348 347 346 346 346 345 343 342 341 341 340 339 337 335 333 332 329 326 323 321 319 317 315 313 311 308 305 303 302
3 2 359 356 353 352 352 352 352 351 350 349 348 348 348 347 347 346 346 345 344 343 343 343 341 340 340 339 338 337 334 331 328 326 324 321 318 316 314 312 310 308 305
Height
5782 5780 5777 5774 5771 5768 5765 5761 5758 5754 5750 5746 5743 5739 5736 5732 5729 5725 5722 5720 5717 5714 5712 5710 5708 5707 5706 5705 5705 5705 5705 5705 5705 5705 5705 5706 5706 5707 5708 5709 5711 5712 5713
5777 5775 5771 5769 5766 5763 5759 5756 5752 5749 5745 5741 5738 5734 5731 5728 5724 5721 5718 5715 5712 5710 5707 5705 5703 5701 5700 5699 5699 5698 5698 5697 5697 5697 5697 5697 5698 5699 5700 5701 5702 5704 5705
5772 5769 5766 5763 5760 5757 5754 5751 5747 5743 5740 5737 5733 5730 5727 5723 5720 5717 5714 5710 5708 5705 5702 5700 5698 5696 5695 5694 5693 5692 5691 5690 5689 5689 5689 5689 5690 5691 5692 5693 5694 5695 5697
5768 5765 5761 5758 5755 5752 5749 5746 5742 5739 5736 5733 5729 5726 5723 5719 5716 5713 5709 5707 5704 5701 5698 5695 5693 5691 5690 5688 5687 5686 5684 5683 5683 5682 5682 5682 5683 5683 5685 5686 5687 5688 5689
5763 5760 5757 5753 5750 5747 5744 5741 5738 5735 5732 5729 5726 5723 5719 5716 5713 5709 5706 5703 5700 5697 5695 5692 5689 5687 5685 5683 5681 5680 5678 5677 5676 5676 5676 5676 5677 5677 5678 5679 5680 5681 5682
5759 5756 5752 5749 5746 5743 5740 5736 5734 5732 5729 5726 5723 5720 5717 5713 5710 5706 5703 5700 5697 5694 5691 5688 5686 5683 5681 5678 5677 5675 5673 5672 5671 5671 5671 5671 5671 5671 5671 5672 5673 5674 5676
5755 5752 5749 5746 5743 5740 5737 5734 5732 5729 5726 5723 5720 5717 5714 5710 5707 5704 5700 5697 5694 5691 5688 5685 5682 5680 5677 5674 5672 5671 5669 5667 5667 5666 5666 5666 5666 5665 5666 5666 5667 5668 5669
5751 5748 5745 5742 5739 5737 5734 5732 5729 5726 5723 5721 5717 5714 5711 5708 5704 5701 5697 5694 5691 5688 5685 5682 5679 5677 5674 5672 5669 5667 5666 5664 5663 5662 5661 5661 5661 5660 5661 5661 5661 5662 5663
5747 5744 5742 5739 5736 5734 5732 5729 5727 5724 5721 5718 5715 5712 5709 5705 5702 5698 5695 5691 5688 5685 5682 5679 5676 5673 5671 5668 5666 5664 5662 5660 5658 5657 5656 5656 5655 5655 5655 5655 5655 5656 5657
5744 5741 5739 5736 5734 5731 5729 5727 5724 5721 5719 5716 5713 5709 5706 5703 5699 5696 5692 5689 5686 5682 5679 5676 5673 5670 5667 5665 5662 5660 5658 5656 5654 5653 5651 5650 5650 5649 5649 5649 5649 5650 5650
5741 5739 5736 5734 5731 5729 5727 5725 5722 5720 5717 5714 5711 5707 5704 5701 5697 5693 5690 5687 5683 5680 5676 5673 5670 5667 5664 5661 5658 5656 5654 5652 5650 5648 5647 5645 5645 5644 5644 5643 5643 5644 5644
5739 5736 5734 5731 5729 5727 5725 5723 5720 5718 5715 5712 5709 5705 5702 5698 5695 5691 5688 5684 5681 5677 5674 5671 5668 5664 5661 5657 5654 5651 5649 5647 5645 5643 5642 5641 5640 5639 5638 5637 5637 5637 5638
5737 5735 5732 5730 5728 5726 5724 5721 5719 5716 5713 5710 5707 5703 5700 5697 5693 5689 5686 5682 5678 5675 5671 5668 5665 5661 5658 5654 5651 5648 5645 5643 5640 5639 5637 5636 5634 5633 5632 5631 5631 5631 5631
5735 5733 5731 5729 5727 5725 5723 5720 5718 5715 5712 5709 5706 5702 5699 5695 5691 5687 5684 5680 5676 5672 5668 5665 5661 5657 5654 5650 5647 5644 5641 5638 5636 5634 5632 5630 5629 5627 5626 5625 5625 5624 5624
5734 5732 5730 5728 5726 5724 5722 5719 5717 5714 5711 5708 5705 5701 5697 5694 5690 5685 5681 5677 5673 5669 5665 5661 5657 5654 5650 5646 5643 5640 5637 5634 5631 5629 5627 5625 5623 5622 5620 5619 5618 5617 5617
5733 5731 5730 5728 5726 5724 5721 5719 5716 5713 5710 5707 5703 5700 5695 5691 5687 5683 5679 5675 5671 5666 5662 5658 5654 5649 5646 5642 5639 5635 5632 5629 5626 5623 5621 5619 5617 5615 5614 5612 5611 5610 5610
5732 5731 5729 5728 5726 5723 5721 5718 5715 5712 5709 5705 5702 5698 5694 5689 5685 5681 5677 5672 5668 5663 5659 5654 5649 5645 5641 5637 5633 5630 5627 5623 5620 5617 5615 5612 5610 5608 5607 5605 5604 5602 5601
5732 5730 5729 5727 5725 5722 5720 5717 5714 5711 5708 5704 5700 5696 5692 5688 5683 5679 5674 5669 5664 5659 5655 5650 5645 5640 5636 5632 5628 5624 5621 5617 5614 5611 5608 5605 5603 5601 5599 5597 5596 5594 5593
5731 5729 5728 5726 5724 5722 5719 5716 5713 5710 5706 5703 5699 5695 5690 5686 5681 5676 5671 5666 5661 5656 5651 5645 5640 5635 5630 5626 5622 5618 5614 5611 5607 5604 5601 5598 5595 5593 5591 5589 5587 5586 5584
5730 5729 5727 5725 5723 5721 5718 5715 5712 5708 5705 5701 5697 5693 5688 5683 5679 5674 5668 5663 5657 5652 5647 5641 5636 5631 5626 5621 5616 5612 5608 5604 5600 5597 5593 5590 5587 5585 5582 5580 5578 5577 5575
5729 5728 5726 5724 5722 5720 5717 5714 5710 5707 5704 5699 5695 5691 5686 5681 5676 5670 5665 5660 5654 5649 5643 5637 5632 5626 5621 5616 5611 5606 5601 5597 5593 5590 5586 5583 5579 5576 5574 5571 5569 5567 5565
5729 5727 5725 5724 5721 5719 5716 5713 5709 5706 5702 5697 5693 5688 5683 5678 5673 5667 5662 5656 5650 5645 5639 5633 5627 5621 5616 5610 5605 5600 5595 5591 5586 5582 5578 5575 5571 5568 5565 5562 5559 5557 5555
5728 5727 5725 5723 5721 5718 5715 5712 5708 5705 5700 5695 5691 5686 5681 5675 5670 5664 5659 5653 5647 5640 5635 5628 5622 5616 5610 5605 5599 5594 5589 5584 5579 5575 5571 5567 5563 5560 5556 5553 5550 5547 5545
5728 5726 5724 5722 5720 5717 5714 5711 5707 5703 5698 5694 5689 5684 5678 5673 5667 5661 5655 5649 5643 5636 5630 5624 5617 5611 5605 5599 5593 5587 5582 5577 5572 5568 5563 5559 5555 5551 5547 5544 5541 5538 5535
5727 5726 5724 5722 5719 5716 5713 5710 5706 5701 5697 5692 5687 5681 5676 5670 5664 5658 5651 5645 5639 5632 5626 5619 5613 5606 5600 5593 5587 5581 5575 5570 5565 5560 5556 5552 5547 5543 5540 5536 5533 5529 5526
5727 5725 5723 5721 5719 5716 5712 5708 5704 5700 5695 5690 5685 5679 5673 5667 5661 5655 5648 5642 5635 5628 5621 5615 5608 5601 5594 5588 5582 5576 5570 5564 5559 5553 5549 5544 5540 5536 5532 5528 5524 5521 5517